Погода в Бершади

Украина / Винницкая область     48°22′22″N   29°31′31″E
темп.,
°C
ветер,
м/с
пор.,
м/с
влажн.,
%
обл.,
%
осадки,
мм/ч
давл.,
гПа
погр.,
м
25 января, пн
пн2523:00+5ююз369794 0.0 1003121
02:00+3ююв369862 0.0 1003133
05:00+2юв499468 0.0 1002165
08:00+3юв7159284 0.0 1001398
11:00+7ююв81693100 0.0 999609
14:00+7ююв81594100 0.4 995618
17:00+7ююв81494100 1.1 994571
20:00+7ююв71395100 5.3 993546
26 января, вт
вт2623:00+1з101696100 5.1 995674
02:00+1зюз81379100 5.3 998874
05:000зюз6128055 0.0 1002708
08:00+1юз5117453 0.0 1005494
11:00+3зюз5762100 0.0 1006919
14:00+2з3468100 0.0 1006786
17:00+1зсз2381100 0.0 100863
20:000сз3783100 0.0 1010226
27 января, ср
ср2723:000ссз2680100 0.0 1010385
02:000с4876100 0.0 1009474
05:00−1ссв61079100 0.0 1008641
08:00−1ссв71188100 0.6 1006708
11:00−1ссв91495100 3.9 1004790
14:00−1с101596100 11.3 1001899
17:00−2с111795100 5.9 1000930
20:00−2с101694100 11.3 1000888
28 января, чт
чт2823:00−2с91594100 0.9 1000862
02:00−2ссз81396100 3.6 1000773
05:00−2ссз71393100 0.6 1001737
08:00−2сз7139399 1.1 1001628
11:00−1сз7119399 0.2 1002747
14:00−1сз7119599 0.8 1001809
17:00−2зсз61195100 0.7 1002671
20:00−2зсз61189100 1.3 1003605
29 января, пт
пт2923:00−6з5108975 0.0 1005168
02:00−7зюз479137 0.0 1006123
05:00−8з34935 0.0 100677
08:00−9зюз23943 0.0 100626
11:00−5ююз34920 0.0 1005199
14:00−3ю479024 0.0 1002374
17:00−4ююв51092100 0.0 1001345
20:00−3ююв61196100 0.4 999475